Regional Weather Roundup
Issued by NWS

Home | Current Version | Previous Version | Text Only | Print | Product List | Glossary On
Versions: 1 2 3 4 5 6 7 8 9 10 11 12 13 14 15 16 17 18 19 20 21 22 23 24 25 26 27 28 29 30 31 32 33 34 35 36 37 38 39 40 41 42 43 44 45 46 47 48 49 50
000
ASUS43 KIND 300009
RWRIN

WEATHER ROUNDUP FOR INDIANA
NATIONAL WEATHER SERVICE INDIANAPOLIS IN
800 PM EDT THU SEP 29 2016

NOTE: "FAIR" INDICATES FEW OR NO CLOUDS BELOW 12,000 FEET WITH NO
SIGNIFICANT WEATHER AND/OR OBSTRUCTIONS TO VISIBILITY.

* - STATION DOES NOT REPORT WEATHER SUCH AS PRECIPITATION OR FOG.

+ - STATION NOT QUALITY CONTROLLED BY THE NATIONAL WEATHER SERVICE.
    USE DATA WITH CAUTION...ESPECIALLY DEWPOINT AND RELATIVE
    HUMIDITY OBSERVATIONS.

INZ001>003-010>013-019-020-300100-
NORTHWEST INDIANA

CITY           SKY/WX    TMP DP  RH WIND       PRES   REMARKS
GARY /AIRPORT/ CLOUDY    64  59  82 NE14G28   30.20R
KNOX *+        MOCLDY    63  36  36 NE9       30.16R
LA PORTE +     CLOUDY    64  62  93 NE9       30.19R
6HR MIN TEMP:  64; 6HR MAX TEMP:  71;

MICHIGAN CITY+ CLOUDY    61  55  82 CALM      30.19S
MONTICELLO +   CLOUDY    64  45  49 CALM      30.12S
6HR MIN TEMP:  64; 6HR MAX TEMP:  73;

RENSSELAER +   MOCLDY    63  61  94 N7        30.15R
VALPARAISO     MOCLDY    63  56  78 NE9       30.18R
6HR MIN TEMP:  62; 6HR MAX TEMP:  68; 6HR PCP:  0.15;


$$

LMZ046-743>745-300100-
SOUTHERN LAKE MICHIGAN

STATION/POSITION TIME  TEMP    WIND        PRES    WAVE
                       AIR SEA DIR/SP/G            HT
                 (UTC) (F)     (DEG/KT/KT) (MB)    (FT)
BURNS HARBOR     2340   63      40/ 22/ 26 1022.4R
MICHIGAN CITY    2340   62      20/ 23/ 25   N/A
5NW MICH CITY    0000   62 65   40/ 17/ 23   N/A     7

$$

INZ004-005-014>016-021>024-300100-
NORTH CENTRAL INDIANA

CITY           SKY/WX    TMP DP  RH WIND       PRES   REMARKS
ELKHART        MOCLDY   N/A N/A N/A NE10      30.18R
GOSHEN         LGT RAIN  61  58  90 N12       30.17R FOG
6HR MIN TEMP:  61; 6HR MAX TEMP:  70; 6HR PCP:  0.09;

LOGANSPORT +   CLOUDY    64  52  63 NE5       30.13F
PERU/GRISSOM   MOCLDY    64  53  68 NE8       30.11S
6HR MIN TEMP:  64; 6HR MAX TEMP:  70;

ROCHESTER +    CLOUDY    66  55  68 N6        30.14S
SOUTH BEND     CLOUDY    61  57  87 NE10G18   30.19R
6HR MIN TEMP:  61; 6HR MAX TEMP:  70;

WARSAW +       CLOUDY    63  61  94 N13       30.15R

$$

INZ006>009-017-018-025>027-300100-
NORTHEAST INDIANA

CITY           SKY/WX    TMP DP  RH WIND       PRES   REMARKS
ANGOLA *+        N/A     61  48  63 N6        30.15F
AUBURN +       LGT RAIN  61  57  88 NE8       30.15S
FORT WAYNE     HVY RAIN  62  57  83 N13G24    30.13S
6HR MIN TEMP:  62; 6HR MAX TEMP:  69; 6HR PCP:  0.04;

HUNTINGTON +   LGT RAIN  61  56  82 N3        30.12F
KENDALLVILLE + LGT RAIN  61  58  91 NE10      30.15F

$$

INZ028-029-035-036-043>045-051>053-300100-
WEST CENTRAL INDIANA

CITY           SKY/WX    TMP DP  RH WIND       PRES   REMARKS
CRAWFORDSVL +  PTCLDY    58  50  73 N3        30.11S
6HR MIN TEMP:  58; 6HR MAX TEMP:  68;

GREENCASTLE +  PTCLDY    61  54  77 CALM      30.11R
LAFAYETTE      PTCLDY    63  51  65 N6        30.11S
6HR MIN TEMP:  63; 6HR MAX TEMP:  69;

TERRE HAUTE    CLEAR     57  53  86 N3        30.10R
6HR MIN TEMP:  57; 6HR MAX TEMP:  69;


$$

INZ030>032-037>040-046>048-054>057-064-065-300100-
CENTRAL INDIANA

CITY           SKY/WX    TMP DP  RH WIND       PRES   REMARKS
COLUMBUS       MOCLDY    59  57  94 CALM      30.08S
FRANKFORT +    CLOUDY    66  51  57 NE6       30.13S
6HR MIN TEMP:  66; 6HR MAX TEMP:  72;

GREENWOOD *+   CLOUDY    64  54  68 CALM      30.09S
INDIANAPOLIS   CLOUDY    64  51  62 N6        30.09R
6HR MIN TEMP:  63; 6HR MAX TEMP:  69;

-EAGLE CREEK   CLOUDY    65  51  60 N6        30.09S
6HR MIN TEMP:  63; 6HR MAX TEMP:  69;

KOKOMO *+      CLOUDY    64  53  67 NE10      30.13S
6HR MIN TEMP:  64; 6HR MAX TEMP:  69;

MARION +       CLOUDY    64  53  69 E8        30.13R
MT COMFORT *+  CLOUDY    63  52  67 NE3       30.09F
SHELBYVILLE    CLOUDY    63  53  70 CALM      30.08S
6HR MIN TEMP:  63; 6HR MAX TEMP:  70;

ZIONSVILLE +   CLOUDY    62  52  70 N6        30.11S
6HR MIN TEMP:  62; 6HR MAX TEMP:  68;


$$

INZ033-034-041-042-049-050-058-059-300100-
EAST CENTRAL INDIANA

CITY           SKY/WX    TMP DP  RH WIND       PRES   REMARKS
MUNCIE         LGT RAIN  61  57  87 NE13      30.10S
6HR MIN TEMP:  61; 6HR MAX TEMP:  72; 6HR PCP:  0.01;


$$

INZ060-061-067>069-081>083-085>088-300100-
SOUTHWEST INDIANA

CITY           SKY/WX    TMP DP  RH WIND       PRES   REMARKS
EVANSVILLE     PTCLDY    62  53  72 NW3       30.10S
6HR MIN TEMP:  62; 6HR MAX TEMP:  69;

HUNTINGBURG *+   N/A     59  52  77 S3        30.10S
6HR MIN TEMP:  59; 6HR MAX TEMP:  66;

WASHINGTON +   CLOUDY    61  56  83 MISG      30.09R
6HR MIN TEMP:  60; 6HR MAX TEMP:  67;


$$

INZ062-063-066-070>080-084-089>092-300100-
SOUTH CENTRAL AND SOUTHEAST INDIANA

CITY           SKY/WX    TMP DP  RH WIND       PRES   REMARKS
BLOOMINGTON    PTCLDY    57  52  83 CALM      30.09S
6HR MIN TEMP:  57; 6HR MAX TEMP:  69;

MADISON *+     CLOUDY    55  54  94 CALM      30.10S
SEYMOUR +      PTCLDY    57  52  82 CALM      30.08S

$$





USA.gov is the U.S. government's official web portal to all federal, state and local government web resources and services.